| time (UTC) | temp C | wind direction | speed KPH | gust KPH | rain 1hr cm | rain 24hr cm | rain mn cm | humidity % | barometer mb |
| 20260505122521 | 13 | 149 | 3.2 | 8.0 | 0.00 | 0.00 | 0.00 | 86 | 1013.8 |
| 20260505122021 | 13 | 115 | 6.4 | 8.0 | 0.00 | 0.00 | 0.00 | 87 | 1013.8 |
| 20260505121542 | 13 | 116 | 6.4 | 11.3 | 0.00 | 0.00 | 0.00 | 87 | 1013.8 |
| 20260505121019 | 12 | 138 | 6.4 | 11.3 | 0.00 | 0.00 | 0.00 | 86 | 1013.9 |
| 20260505120519 | 12 | 121 | 3.2 | 4.8 | 0.00 | 0.00 | 0.00 | 86 | 1013.8 |
| 20260505120020 | 12 | 148 | 3.2 | 4.8 | 0.00 | 0.00 | 0.00 | 86 | 1013.7 |
| 20260505115522 | 12 | 148 | 3.2 | 4.8 | 0.00 | 0.00 | 0.00 | 86 | 1013.6 |
| 20260505115023 | 12 | 148 | 0.0 | 1.6 | 0.00 | 0.00 | 0.00 | 85 | 1013.4 |
| 20260505114522 | 12 | 148 | 0.0 | 3.2 | 0.00 | 0.00 | 0.00 | 86 | 1013.5 |
| 20260505114024 | 12 | 148 | 0.0 | 4.8 | 0.00 | 0.00 | 0.00 | 86 | 1013.5 |
| 20260505113523 | 12 | 148 | 3.2 | 4.8 | 0.00 | 0.00 | 0.00 | 86 | 1013.4 |
| 20260505113020 | 12 | 148 | 3.2 | 6.4 | 0.00 | 0.00 | 0.00 | 85 | 1013.4 |
| 20260505112520 | 12 | 144 | 3.2 | 6.4 | 0.00 | 0.00 | 0.00 | 84 | 1013.1 |
| 20260505112021 | 12 | 149 | 6.4 | 8.0 | 0.00 | 0.00 | 0.00 | 84 | 1013.1 |
| 20260505111551 | 12 | 165 | 6.4 | 6.4 | 0.00 | 0.00 | 0.00 | 83 | 1013.1 |
| 20260505111013 | 13 | 165 | 4.8 | 6.4 | 0.00 | 0.00 | 0.00 | 82 | 1012.9 |
| 20260505110513 | 13 | 182 | 3.2 | 6.4 | 0.00 | 0.00 | 0.00 | 82 | 1013.1 |
| 20260505102022 | 12 | 181 | 6.4 | 8.0 | 0.00 | 0.00 | 0.00 | 84 | 1012.7 |
| 20260505101547 | 12 | 171 | 8.0 | 9.7 | 0.00 | 0.00 | 0.00 | 84 | 1012.9 |
| 20260505101028 | 12 | 161 | 6.4 | 11.3 | 0.00 | 0.00 | 0.00 | 84 | 1012.8 |
| 20260505100531 | 12 | 159 | 8.0 | 11.3 | 0.00 | 0.00 | 0.00 | 84 | 1012.8 |
| 20260505100031 | 12 | 157 | 8.0 | 11.3 | 0.00 | 0.00 | 0.00 | 84 | 1012.8 |
| 20260505095512 | 12 | 166 | 9.7 | 11.3 | 0.00 | 0.00 | 0.00 | 84 | 1012.8 |
| 20260505095019 | 12 | 168 | 9.7 | 12.9 | 0.00 | 0.00 | 0.00 | 85 | 1012.9 |
| 20260505094521 | 12 | 161 | 9.7 | 14.5 | 0.00 | 0.00 | 0.00 | 85 | 1013.0 |
| 20260505094023 | 12 | 148 | 9.7 | 16.1 | 0.00 | 0.00 | 0.00 | 85 | 1013.2 |
| 20260505093547 | 12 | 167 | 8.0 | 9.7 | 0.00 | 0.00 | 0.00 | 85 | 1013.4 |
| 20260505093023 | 12 | 159 | 6.4 | 11.3 | 0.00 | 0.00 | 0.00 | 85 | 1013.3 |
| 20260505092521 | 12 | 170 | 8.0 | 12.9 | 0.00 | 0.00 | 0.00 | 85 | 1013.2 |
| 20260505092032 | 12 | 161 | 8.0 | 12.9 | 0.00 | 0.00 | 0.00 | 85 | 1013.4 |
| 20260505091532 | 12 | 163 | 8.0 | 9.7 | 0.00 | 0.00 | 0.00 | 85 | 1013.4 |
| 20260505091032 | 12 | 155 | 6.4 | 11.3 | 0.00 | 0.00 | 0.00 | 84 | 1013.2 |
| 20260505090531 | 12 | 148 | 6.4 | 11.3 | 0.00 | 0.00 | 0.00 | 83 | 1013.4 |
| 20260505090032 | 13 | 153 | 8.0 | 11.3 | 0.00 | 0.00 | 0.00 | 82 | 1013.4 |
| 20260505085533 | 13 | 172 | 8.0 | 9.7 | 0.00 | 0.00 | 0.00 | 81 | 1013.5 |
| 20260505085034 | 13 | 167 | 8.0 | 11.3 | 0.00 | 0.00 | 0.00 | 81 | 1013.5 |
| 20260505084532 | 13 | 168 | 8.0 | 12.9 | 0.00 | 0.00 | 0.00 | 80 | 1013.5 |
| 20260505084014 | 13 | 145 | 8.0 | 12.9 | 0.00 | 0.00 | 0.00 | 79 | 1013.3 |
| 20260505083040 | 15 | 157 | 6.4 | 11.3 | 0.00 | 0.00 | 0.00 | 76 | 1013.4 |
| 20260505082541 | 15 | 187 | 4.8 | 9.7 | 0.00 | 0.00 | 0.00 | 74 | 1013.5 |
| 20260505082042 | 15 | 253 | 4.8 | 11.3 | 0.00 | 0.00 | 0.00 | 74 | 1013.5 |
| 20260505081525 | 15 | 225 | 4.8 | 12.9 | 0.00 | 0.00 | 0.00 | 75 | 1013.4 |
| 20260505081025 | 15 | 264 | 4.8 | 11.3 | 0.00 | 0.00 | 0.00 | 75 | 1013.4 |
| 20260505080526 | 15 | 266 | 4.8 | 14.5 | 0.00 | 0.00 | 0.00 | 75 | 1013.6 |
| 20260505080052 | 15 | 261 | 6.4 | 14.5 | 0.00 | 0.00 | 0.00 | 74 | 1013.5 |
| 20260505075529 | 15 | 265 | 6.4 | 12.9 | 0.00 | 0.00 | 0.00 | 74 | 1013.5 |
| 20260505075053 | 15 | 250 | 4.8 | 14.5 | 0.00 | 0.00 | 0.00 | 74 | 1013.5 |
| 20260505074513 | 15 | 245 | 6.4 | 14.5 | 0.00 | 0.00 | 0.00 | 73 | 1013.6 |
| 20260505074030 | 15 | 261 | 6.4 | 14.5 | 0.00 | 0.00 | 0.00 | 73 | 1013.7 |
| 20260505073525 | 15 | 259 | 6.4 | 16.1 | 0.00 | 0.00 | 0.00 | 72 | 1013.7 |
| 20260505073022 | 15 | 296 | 6.4 | 16.1 | 0.00 | 0.00 | 0.00 | 72 | 1013.7 |
| 20260505072519 | 15 | 260 | 4.8 | 16.1 | 0.00 | 0.00 | 0.00 | 71 | 1013.7 |
| 20260505072019 | 16 | 259 | 4.8 | 11.3 | 0.00 | 0.00 | 0.00 | 71 | 1013.5 |
| 20260505071520 | 16 | 242 | 4.8 | 17.7 | 0.00 | 0.00 | 0.00 | 71 | 1013.6 |
| 20260505071016 | 16 | 284 | 4.8 | 17.7 | 0.00 | 0.00 | 0.00 | 70 | 1013.5 |
| 20260505070538 | 16 | 242 | 6.4 | 19.3 | 0.00 | 0.00 | 0.00 | 70 | 1013.5 |
| 20260505070014 | 16 | 218 | 6.4 | 19.3 | 0.00 | 0.00 | 0.00 | 70 | 1013.5 |
| 20260505065514 | 16 | 182 | 4.8 | 12.9 | 0.00 | 0.00 | 0.00 | 69 | 1013.6 |
| 20260505065017 | 16 | 241 | 4.8 | 12.9 | 0.00 | 0.00 | 0.00 | 69 | 1013.6 |
| 20260505064519 | 16 | 224 | 4.8 | 27.4 | 0.00 | 0.00 | 0.00 | 69 | 1013.6 |
| 20260505064018 | 16 | 189 | 8.0 | 27.4 | 0.00 | 0.00 | 0.00 | 68 | 1013.8 |
| 20260505063519 | 16 | 220 | 6.4 | 19.3 | 0.00 | 0.00 | 0.00 | 68 | 1013.6 |
| 20260505063021 | 16 | 213 | 8.0 | 24.1 | 0.00 | 0.00 | 0.00 | 67 | 1013.7 |
| 20260505062521 | 16 | 211 | 8.0 | 22.5 | 0.00 | 0.00 | 0.00 | 67 | 1013.8 |
| 20260505062021 | 16 | 219 | 6.4 | 12.9 | 0.00 | 0.00 | 0.00 | 66 | 1013.8 |
| 20260505061521 | 16 | 207 | 6.4 | 12.9 | 0.00 | 0.00 | 0.00 | 66 | 1013.7 |
| 20260505061022 | 16 | 219 | 6.4 | 16.1 | 0.00 | 0.00 | 0.00 | 66 | 1013.8 |
| 20260505060523 | 16 | 237 | 8.0 | 19.3 | 0.00 | 0.00 | 0.00 | 66 | 1013.9 |
| 20260505060025 | 16 | 215 | 6.4 | 19.3 | 0.00 | 0.00 | 0.00 | 65 | 1014.0 |
| 20260505055526 | 16 | 191 | 6.4 | 16.1 | 0.00 | 0.00 | 0.00 | 65 | 1014.0 |
| 20260505055042 | 16 | 213 | 6.4 | 16.1 | 0.00 | 0.00 | 0.00 | 64 | 1014.1 |
| 20260505054521 | 17 | 213 | 4.8 | 16.1 | 0.00 | 0.00 | 0.00 | 64 | 1014.1 |
| 20260505054019 | 17 | 198 | 4.8 | 12.9 | 0.00 | 0.00 | 0.00 | 64 | 1014.0 |
| 20260505053521 | 17 | 183 | 4.8 | 12.9 | 0.00 | 0.00 | 0.00 | 63 | 1014.0 |
| 20260505053022 | 16 | 205 | 6.4 | 14.5 | 0.00 | 0.00 | 0.00 | 64 | 1014.0 |
| 20260505052549 | 16 | 209 | 6.4 | 14.5 | 0.00 | 0.00 | 0.00 | 64 | 1014.0 |
| 20260505052026 | 16 | 224 | 6.4 | 12.9 | 0.00 | 0.00 | 0.00 | 64 | 1014.0 |
| 20260505051529 | 16 | 200 | 8.0 | 12.9 | 0.00 | 0.00 | 0.00 | 64 | 1013.9 |
| 20260505051030 | 16 | 160 | 3.2 | 11.3 | 0.00 | 0.00 | 0.00 | 65 | 1013.8 |
| 20260505050514 | 16 | 149 | 8.0 | 14.5 | 0.00 | 0.00 | 0.00 | 62 | 1013.9 |
| 20260505041523 | 19 | 179 | 4.8 | 11.3 | 0.00 | 0.00 | 0.00 | 52 | 1013.6 |
| 20260505041023 | 19 | 209 | 4.8 | 9.7 | 0.00 | 0.00 | 0.00 | 52 | 1013.6 |
| 20260505040523 | 19 | 204 | 4.8 | 11.3 | 0.00 | 0.00 | 0.00 | 52 | 1013.6 |
| 20260505040045 | 18 | 174 | 4.8 | 11.3 | 0.00 | 0.00 | 0.00 | 52 | 1013.7 |
| 20260505035520 | 18 | 213 | 4.8 | 11.3 | 0.00 | 0.00 | 0.00 | 53 | 1013.7 |
| 20260505035018 | 18 | 172 | 6.4 | 11.3 | 0.00 | 0.00 | 0.00 | 54 | 1013.7 |
| 20260505034540 | 18 | 161 | 4.8 | 8.0 | 0.00 | 0.00 | 0.00 | 55 | 1013.7 |
| 20260505034020 | 18 | 175 | 6.4 | 8.0 | 0.00 | 0.00 | 0.00 | 55 | 1013.8 |
| 20260505033521 | 18 | 169 | 6.4 | 8.0 | 0.00 | 0.00 | 0.00 | 54 | 1013.9 |
| 20260505033021 | 18 | 230 | 3.2 | 8.0 | 0.00 | 0.00 | 0.00 | 53 | 1013.7 |
| 20260505032540 | 18 | 200 | 4.8 | 8.0 | 0.00 | 0.00 | 0.00 | 53 | 1013.8 |
| 20260505032020 | 18 | 182 | 3.2 | 8.0 | 0.00 | 0.00 | 0.00 | 53 | 1013.9 |
| 20260505031540 | 18 | 180 | 4.8 | 8.0 | 0.00 | 0.00 | 0.00 | 53 | 1013.9 |
| 20260505031022 | 18 | 192 | 4.8 | 8.0 | 0.00 | 0.00 | 0.00 | 53 | 1013.8 |
| 20260505030540 | 18 | 178 | 4.8 | 8.0 | 0.00 | 0.00 | 0.00 | 53 | 1013.8 |
| 20260505030041 | 18 | 182 | 4.8 | 6.4 | 0.00 | 0.00 | 0.00 | 53 | 1013.9 |
| 20260505025520 | 18 | 160 | 4.8 | 6.4 | 0.00 | 0.00 | 0.00 | 53 | 1013.9 |
| 20260505025024 | 19 | 166 | 3.2 | 8.0 | 0.00 | 0.00 | 0.00 | 50 | 1013.9 |
| 20260505024526 | 20 | 194 | 4.8 | 9.7 | 0.00 | 0.00 | 0.00 | 48 | 1013.9 |
| 20260505024050 | 20 | 196 | 4.8 | 9.7 | 0.00 | 0.00 | 0.00 | 48 | 1013.9 |
| 20260505023518 | 20 | 188 | 4.8 | 12.9 | 0.00 | 0.00 | 0.00 | 48 | 1013.9 |
| 20260505023022 | 20 | 217 | 4.8 | 14.5 | 0.00 | 0.00 | 0.00 | 47 | 1013.9 |
| 20260505022523 | 20 | 207 | 4.8 | 14.5 | 0.00 | 0.00 | 0.00 | 47 | 1013.9 |
| 20260505022052 | 20 | 219 | 4.8 | 11.3 | 0.00 | 0.00 | 0.00 | 48 | 1013.8 |
| 20260505021514 | 20 | 220 | 4.8 | 12.9 | 0.00 | 0.00 | 0.00 | 48 | 1013.8 |
| 20260505021029 | 20 | 215 | 4.8 | 11.3 | 0.00 | 0.00 | 0.00 | 48 | 1013.8 |
| 20260505020517 | 20 | 192 | 4.8 | 9.7 | 0.00 | 0.00 | 0.00 | 48 | 1013.7 |
| 20260505020020 | 20 | 189 | 4.8 | 11.3 | 0.00 | 0.00 | 0.00 | 49 | 1013.7 |
| 20260505015521 | 20 | 176 | 6.4 | 11.3 | 0.00 | 0.00 | 0.00 | 48 | 1013.6 |
| 20260505015027 | 20 | 198 | 4.8 | 9.7 | 0.00 | 0.00 | 0.00 | 48 | 1013.6 |
| 20260505014514 | 20 | 167 | 4.8 | 11.3 | 0.00 | 0.00 | 0.00 | 48 | 1013.5 |
| 20260505014038 | 20 | 220 | 4.8 | 11.3 | 0.00 | 0.00 | 0.00 | 48 | 1013.6 |
| 20260505013519 | 20 | 242 | 4.8 | 9.7 | 0.00 | 0.00 | 0.00 | 47 | 1013.5 |
| 20260505013021 | 20 | 244 | 4.8 | 9.7 | 0.00 | 0.00 | 0.00 | 47 | 1013.6 |
| 20260505012519 | 20 | 207 | 4.8 | 9.7 | 0.00 | 0.00 | 0.00 | 47 | 1013.4 |
| 20260505012021 | 20 | 200 | 4.8 | 8.0 | 0.00 | 0.00 | 0.00 | 47 | 1013.4 |
| 20260505011522 | 20 | 209 | 3.2 | 8.0 | 0.00 | 0.00 | 0.00 | 47 | 1013.3 |
| 20260505011040 | 20 | 191 | 4.8 | 9.7 | 0.00 | 0.00 | 0.00 | 47 | 1013.3 |
| 20260505010544 | 20 | 173 | 4.8 | 11.3 | 0.00 | 0.00 | 0.00 | 47 | 1013.2 |
| 20260505010023 | 20 | 170 | 4.8 | 11.3 | 0.00 | 0.00 | 0.00 | 48 | 1013.3 |
| 20260505005524 | 20 | 175 | 4.8 | 9.7 | 0.00 | 0.00 | 0.00 | 49 | 1013.3 |
| 20260505005025 | 20 | 218 | 4.8 | 11.3 | 0.00 | 0.00 | 0.00 | 49 | 1013.3 |
| 20260505004527 | 20 | 175 | 4.8 | 12.9 | 0.00 | 0.00 | 0.00 | 50 | 1013.3 |
| 20260505004028 | 20 | 190 | 6.4 | 11.3 | 0.00 | 0.00 | 0.00 | 51 | 1013.2 |
| 20260505003518 | 20 | 171 | 4.8 | 9.7 | 0.00 | 0.00 | 0.00 | 51 | 1013.1 |
| 20260505003022 | 20 | 180 | 3.2 | 9.7 | 0.00 | 0.00 | 0.00 | 51 | 1013.2 |
| 20260505002525 | 20 | 180 | 3.2 | 9.7 | 0.00 | 0.00 | 0.00 | 52 | 1013.1 |
| 20260505002026 | 20 | 158 | 4.8 | 12.9 | 0.00 | 0.00 | 0.00 | 52 | 1013.1 |
| 20260505001522 | 20 | 155 | 6.4 | 12.9 | 0.00 | 0.00 | 0.00 | 52 | 1013.1 |
| 20260505001017 | 21 | 152 | 6.4 | 11.3 | 0.00 | 0.00 | 0.00 | 51 | 1013.0 |
| 20260505000517 | 21 | 138 | 4.8 | 8.0 | 0.00 | 0.00 | 0.00 | 50 | 1013.1 |
| 20260505000020 | 21 | 161 | 4.8 | 9.7 | 0.00 | 0.00 | 0.00 | 49 | 1013.2 |
| 20260504235520 | 21 | 166 | 4.8 | 12.9 | 0.00 | 0.00 | 0.00 | 48 | 1013.0 |
| 20260504235045 | 22 | 141 | 8.0 | 14.5 | 0.00 | 0.00 | 0.00 | 48 | 1013.1 |
| 20260504234526 | 22 | 162 | 8.0 | 14.5 | 0.00 | 0.00 | 0.00 | 47 | 1013.2 |
| 20260504234051 | 22 | 160 | 6.4 | 12.9 | 0.00 | 0.00 | 0.00 | 46 | 1013.3 |
| 20260504233519 | 22 | 163 | 4.8 | 14.5 | 0.00 | 0.00 | 0.00 | 45 | 1013.3 |
| 20260504233024 | 23 | 171 | 9.7 | 20.9 | 0.00 | 0.00 | 0.00 | 44 | 1013.4 |
| 20260504232531 | 23 | 169 | 9.7 | 20.9 | 0.00 | 0.00 | 0.00 | 45 | 1013.2 |
| 20260504232031 | 23 | 171 | 8.0 | 17.7 | 0.00 | 0.00 | 0.00 | 45 | 1013.3 |
| 20260504231521 | 23 | 154 | 9.7 | 17.7 | 0.00 | 0.00 | 0.00 | 43 | 1013.3 |
| 20260504231017 | 23 | 161 | 4.8 | 11.3 | 0.00 | 0.00 | 0.00 | 45 | 1013.3 |
| 20260504230519 | 23 | 157 | 6.4 | 14.5 | 0.00 | 0.00 | 0.00 | 41 | 1013.3 |
| 20260504230018 | 23 | 193 | 4.8 | 24.1 | 0.00 | 0.00 | 0.00 | 39 | 1013.4 |
| 20260504225538 | 24 | 192 | 8.0 | 24.1 | 0.00 | 0.00 | 0.00 | 43 | 1013.4 |
| 20260504225020 | 24 | 190 | 6.4 | 16.1 | 0.00 | 0.00 | 0.00 | 39 | 1013.4 |
| 20260504224521 | 24 | 163 | 3.2 | 14.5 | 0.00 | 0.00 | 0.00 | 40 | 1013.4 |
| 20260504224048 | 24 | 175 | 6.4 | 14.5 | 0.00 | 0.00 | 0.00 | 40 | 1013.5 |
| 20260504223552 | 24 | 158 | 6.4 | 16.1 | 0.00 | 0.00 | 0.00 | 40 | 1013.4 |
| 20260504223031 | 24 | 176 | 6.4 | 16.1 | 0.00 | 0.00 | 0.00 | 40 | 1013.5 |
| 20260504222530 | 25 | 199 | 6.4 | 12.9 | 0.00 | 0.00 | 0.00 | 39 | 1013.6 |
| 20260504222028 | 25 | 163 | 4.8 | 14.5 | 0.00 | 0.00 | 0.00 | 41 | 1013.5 |
| 20260504221530 | 25 | 232 | 4.8 | 16.1 | 0.00 | 0.00 | 0.00 | 40 | 1013.5 |
| 20260504221016 | 25 | 169 | 4.8 | 16.1 | 0.00 | 0.00 | 0.00 | 37 | 1013.7 |
| 20260504220517 | 25 | 136 | 4.8 | 14.5 | 0.00 | 0.00 | 0.00 | 40 | 1013.7 |
| 20260504220019 | 25 | 172 | 8.0 | 14.5 | 0.00 | 0.00 | 0.00 | 39 | 1013.6 |
| 20260504215521 | 25 | 256 | 9.7 | 16.1 | 0.00 | 0.00 | 0.00 | 38 | 1013.6 |
| 20260504215019 | 25 | 160 | 4.8 | 16.1 | 0.00 | 0.00 | 0.00 | 42 | 1013.7 |
| 20260504214541 | 25 | 185 | 11.3 | 17.7 | 0.00 | 0.00 | 0.00 | 41 | 1013.8 |
| 20260504214022 | 25 | 193 | 1.6 | 14.5 | 0.00 | 0.00 | 0.00 | 37 | 1013.7 |
| 20260504213524 | 25 | 296 | 4.8 | 14.5 | 0.00 | 0.00 | 0.00 | 40 | 1013.9 |
| 20260504213029 | 25 | 234 | 6.4 | 14.5 | 0.00 | 0.00 | 0.00 | 40 | 1013.8 |
| 20260504212513 | 26 | 161 | 4.8 | 14.5 | 0.00 | 0.00 | 0.00 | 40 | 1013.9 |
| 20260504212021 | 26 | 167 | 4.8 | 22.5 | 0.00 | 0.00 | 0.00 | 43 | 1013.8 |
| 20260504211520 | 25 | 197 | 8.0 | 22.5 | 0.00 | 0.00 | 0.00 | 42 | 1013.7 |
| 20260504211021 | 25 | 186 | 8.0 | 22.5 | 0.00 | 0.00 | 0.00 | 40 | 1013.9 |
| 20260504210546 | 25 | 214 | 8.0 | 19.3 | 0.00 | 0.00 | 0.00 | 41 | 1014.0 |
| 20260504210015 | 26 | 215 | 8.0 | 19.3 | 0.00 | 0.00 | 0.00 | 37 | 1013.8 |
| 20260504205517 | 26 | 118 | 3.2 | 16.1 | 0.00 | 0.00 | 0.00 | 38 | 1014.0 |
| 20260504205042 | 25 | 178 | 11.3 | 16.1 | 0.00 | 0.00 | 0.00 | 39 | 1014.1 |
| 20260504204524 | 25 | 182 | 8.0 | 22.5 | 0.00 | 0.00 | 0.00 | 37 | 1014.1 |
| 20260504204024 | 25 | 182 | 14.5 | 24.1 | 0.00 | 0.00 | 0.00 | 40 | 1014.0 |
| 20260504203523 | 25 | 217 | 11.3 | 24.1 | 0.00 | 0.00 | 0.00 | 41 | 1014.0 |
| 20260504203023 | 25 | 131 | 8.0 | 17.7 | 0.00 | 0.00 | 0.00 | 45 | 1014.1 |
| 20260504202525 | 24 | 155 | 3.2 | 17.7 | 0.00 | 0.00 | 0.00 | 46 | 1014.2 |
| 20260504202044 | 24 | 121 | 8.0 | 24.1 | 0.00 | 0.00 | 0.00 | 43 | 1014.2 |
| 20260504201523 | 25 | 161 | 14.5 | 24.1 | 0.00 | 0.00 | 0.00 | 42 | 1014.1 |
| 20260504201025 | 26 | 152 | 8.0 | 14.5 | 0.00 | 0.00 | 0.00 | 39 | 1014.2 |
| 20260504200526 | 26 | 142 | 6.4 | 17.7 | 0.00 | 0.00 | 0.00 | 45 | 1014.2 |
| 20260504200025 | 26 | 167 | 8.0 | 17.7 | 0.00 | 0.00 | 0.00 | 40 | 1014.3 |
| 20260504195530 | 26 | 341 | 3.2 | 20.9 | 0.00 | 0.00 | 0.00 | 42 | 1014.4 |
| 20260504195018 | 26 | 135 | 8.0 | 20.9 | 0.00 | 0.00 | 0.00 | 45 | 1014.5 |
| 20260504194522 | 25 | 136 | 3.2 | 14.5 | 0.00 | 0.00 | 0.00 | 46 | 1014.5 |
| 20260504194024 | 25 | 128 | 9.7 | 14.5 | 0.00 | 0.00 | 0.00 | 44 | 1014.6 |
| 20260504193524 | 25 | 209 | 6.4 | 16.1 | 0.00 | 0.00 | 0.00 | 40 | 1014.7 |
| 20260504193025 | 25 | 143 | 8.0 | 16.1 | 0.00 | 0.00 | 0.00 | 44 | 1014.6 |
| 20260504192531 | 25 | 180 | 8.0 | 19.3 | 0.00 | 0.00 | 0.00 | 41 | 1014.7 |
| 20260504192013 | 26 | 138 | 11.3 | 19.3 | 0.00 | 0.00 | 0.00 | 42 | 1014.8 |
| 20260504191532 | 25 | 162 | 6.4 | 11.3 | 0.00 | 0.00 | 0.00 | 40 | 1014.8 |
| 20260504191047 | 25 | 128 | 1.6 | 12.9 | 0.00 | 0.00 | 0.00 | 41 | 1014.9 |
| 20260504190515 | 25 | 167 | 6.4 | 16.1 | 0.00 | 0.00 | 0.00 | 46 | 1015.0 |
| 20260504190016 | 25 | 155 | 4.8 | 16.1 | 0.00 | 0.00 | 0.00 | 43 | 1015.2 |
| 20260504185517 | 25 | 178 | 3.2 | 11.3 | 0.00 | 0.00 | 0.00 | 40 | 1015.4 |
| 20260504185021 | 25 | 225 | 3.2 | 14.5 | 0.00 | 0.00 | 0.00 | 44 | 1015.3 |
| 20260504184524 | 25 | 111 | 9.7 | 14.5 | 0.00 | 0.00 | 0.00 | 43 | 1015.4 |
| 20260504184027 | 25 | 146 | 8.0 | 17.7 | 0.00 | 0.00 | 0.00 | 45 | 1015.5 |
| 20260504183532 | 25 | 159 | 11.3 | 17.7 | 0.00 | 0.00 | 0.00 | 43 | 1015.4 |
| 20260504183018 | 24 | 113 | 6.4 | 12.9 | 0.00 | 0.00 | 0.00 | 44 | 1015.6 |
| 20260504182523 | 25 | 242 | 3.2 | 16.1 | 0.00 | 0.00 | 0.00 | 49 | 1015.7 |
| 20260504182025 | 25 | 193 | 8.0 | 17.7 | 0.00 | 0.00 | 0.00 | 41 | 1015.7 |
| 20260504181528 | 25 | 246 | 3.2 | 11.3 | 0.00 | 0.00 | 0.00 | 45 | 1015.7 |
| 20260504181032 | 25 | 271 | 1.6 | 11.3 | 0.00 | 0.00 | 0.00 | 47 | 1015.7 |
| 20260504180537 | 24 | 77 | 4.8 | 12.9 | 0.00 | 0.00 | 0.00 | 45 | 1015.8 |
| 20260504180037 | 24 | 228 | 3.2 | 12.9 | 0.00 | 0.00 | 0.00 | 44 | 1015.9 |
| 20260504175541 | 24 | 207 | 3.2 | 12.9 | 0.00 | 0.00 | 0.00 | 44 | 1016.0 |
| 20260504175021 | 25 | 200 | 9.7 | 16.1 | 0.00 | 0.00 | 0.00 | 45 | 1016.2 |
| 20260504174523 | 24 | 145 | 6.4 | 14.5 | 0.00 | 0.00 | 0.00 | 45 | 1016.0 |
| 20260504174019 | 23 | 133 | 9.7 | 14.5 | 0.00 | 0.00 | 0.00 | 46 | 1016.1 |
| 20260504173522 | 23 | 174 | 3.2 | 9.7 | 0.00 | 0.00 | 0.00 | 45 | 1016.1 |
| 20260504173024 | 23 | 257 | 3.2 | 8.0 | 0.00 | 0.00 | 0.00 | 48 | 1016.1 |
| 20260504172523 | 23 | 265 | 3.2 | 9.7 | 0.00 | 0.00 | 0.00 | 46 | 1016.3 |
| 20260504172044 | 23 | 313 | 6.4 | 9.7 | 0.00 | 0.00 | 0.00 | 47 | 1016.3 |
| 20260504171529 | 23 | 296 | 6.4 | 14.5 | 0.00 | 0.00 | 0.00 | 46 | 1016.4 |
| 20260504171028 | 23 | 267 | 3.2 | 14.5 | 0.00 | 0.00 | 0.00 | 49 | 1016.6 |
| 20260504170518 | 23 | 239 | 1.6 | 9.7 | 0.00 | 0.00 | 0.00 | 53 | 1016.6 |
| 20260504151029 | 20 | 280 | 4.8 | 12.9 | 0.00 | 0.00 | 0.00 | 58 | 1017.3 |
| 20260504150516 | 19 | 244 | 4.8 | 12.9 | 0.00 | 0.00 | 0.00 | 62 | 1017.2 |
| 20260504141019 | 17 | 145 | 4.8 | 11.3 | 0.00 | 0.00 | 0.00 | 65 | 1017.5 |
| 20260504140522 | 16 | 198 | 6.4 | 11.3 | 0.00 | 0.00 | 0.00 | 65 | 1017.4 |
| 20260504130527 | 13 | 189 | 4.8 | 8.0 | 0.00 | 0.00 | 0.00 | 73 | 1017.4 |